Lid_Strength_Index
3 3 3 3 2 2 2 2 1 1 1 1 1 1 0 0 0 0 0 0 0 0 0 -0 -1 -1 -1 -1 -1 -1 -1 -1 -1
4 3 3 3 2 2 2 2 1 1 1 1 1 1 1 0 0 0 0 -0 -0 -0 -1 -1 -1 -1 -1 -1 -1 -1 -1 -0 -1
3 3 3 3 2 2 2 1 1 1 1 1 1 0 0 0 0 0 -0 0 0 -1 -1 -1 -1 -1 -1 -1 -1 -1 -1 -1 -1
3 3 3 3 2 2 2 1 1 1 1 1 1 1 1 1 0 0 0 0 -0 -0 -1 -0 -0 -0 -0 -0 -0 -1 -1 -1 -1
3 2 2 2 2 2 2 2 1 1 1 1 1 1 1 1 0 0 1 1 0 -0 -0 -1 0 0 0 0 -0 -1 -0 -0 -1
3 3 3 2 2 2 2 2 2 2 1 1 1 1 1 1 1 1 1 1 0 -0 -0 -0 0 0 0 0 -0 0 -0 -0 -0
3 3 3 3 3 3 2 2 2 2 1 1 1 1 1 1 1 1 1 0 0 -0 -0 -0 0 0 0 0 -0 -0 -0 -0 -0
3 3 4 3 3 3 2 2 2 2 1 1 1 1 1 1 1 0 0 0 0 0 0 -0 -0 0 0 -0 0 0 -0 -0 0
3 3 4 3 3 3 3 2 2 2 2 1 1 1 1 1 1 1 1 0 0 0 0 0 -0 0 0 0 0 1 1 0 -0
3 3 3 3 3 3 2 2 2 2 2 1 1 1 1 1 1 1 1 1 1 1 1 1 0 0 0 0 -0 3 2 1 -0
3 3 2 3 3 2 2 2 2 1 1 1 2 2 1 1 1 1 1 1 1 1 2 1 1 0 0 0 0 3 4 1 -0
3 2 2 2 2 2 2 2 1 2 2 2 2 2 2 1 1 1 1 2 1 1 1 1 1 1 0 1 0 5 5 2 0
3 2 2 2 2 2 2 2 1 2 2 2 2 2 1 1 1 1 1 1 1 1 1 1 1 1 0 2 0 6 6 2 1
2 2 2 2 2 2 2 1 1 2 2 2 1 1 1 1 1 1 1 1 1 1 1 1 1 1 1 0 1 0 7 5 1
3 3 3 2 3 2 2 1 2 2 2 1 1 1 1 1 1 1 1 1 1 1 1 2 2 1 1 1 -0 3 6 6 5
3 3 3 2 3 3 2 2 2 3 2 1 1 1 1 1 1 1 1 1 2 2 2 2 2 2 2 2 1 1 6 7 6
3 3 3 2 2 3 3 2 2 2 1 1 1 2 2 2 2 2 1 1 1 2 2 2 3 2 2 2 2 1 1 1 4
3 3 3 2 3 3 3 2 2 1 1 1 2 2 2 2 2 2 3 5 6 2 4 4 2 2 2 2 2 1 4 3 0
3 4 3 3 3 3 2 2 2 1 1 1 2 2 2 2 2 2 1 2 3 12 11 12 11 10 4 5 9 10 10 9 10
4 3 3 3 3 2 2 2 2 1 1 1 1 2 2 2 2 1 2 2 2 2 6 11 12 12 11 10 10 11 11 11 11